HADYOS Weather Reports


time (UTC)temp
C
wind
direction
speed
KPH
gust
KPH
rain 1hr
cm
rain 24hr
cm
rain mn
cm
humidity
%
barometer
mb
20260507153603 20 340 6.4 17.7 0.00 0.00 0.00 56 1016.2
20260507152703 21 315 6.4 17.7 0.00 0.00 0.00 55 1016.2
20260507152016 21 322 6.4 19.3 0.00 0.00 0.00 55 1016.3
20260507151113 21 331 6.4 17.7 0.00 0.00 0.00 55 1016.3
20260507150216 21 329 8.0 17.7 0.00 0.00 0.00 53 1016.3
20260507145403 22 326 6.4 19.3 0.00 0.00 0.00 53 1016.2
20260507144503 22 327 6.4 24.1 0.00 0.00 0.00 53 1016.2
20260507143603 22 327 8.0 17.7 0.00 0.00 0.00 52 1016.3
20260507142703 22 330 8.0 20.9 0.00 0.00 0.00 51 1016.2
20260507141803 22 326 8.0 20.9 0.00 0.00 0.00 51 1016.4
20260507140903 23 331 6.4 17.7 0.00 0.00 0.00 50 1016.3
20260507140004 23 335 8.0 20.9 0.00 0.00 0.00 49 1016.4
20260507135403 23 336 8.0 20.9 0.00 0.00 0.00 49 1016.4
20260507134504 23 341 8.0 20.9 0.00 0.00 0.00 49 1016.3
20260507133603 23 355 11.3 22.5 0.00 0.00 0.00 49 1016.3
20260507132915 24 352 9.7 17.7 0.00 0.00 0.00 48 1016.4
20260507131805 25 352 6.4 17.7 0.00 0.00 0.00 46 1016.5
20260507130903 25 354 8.0 19.3 0.00 0.00 0.00 45 1016.4
20260507130006 25 17 3.2 12.9 0.00 0.00 0.00 38 1016.5
20260507125403 25 24 3.2 12.9 0.00 0.00 0.00 32 1016.7
20260507124505 25 40 1.6 8.0 0.00 0.00 0.00 32 1016.6
20260507123603 25 21 4.8 12.9 0.00 0.00 0.00 31 1016.8
20260507122705 25 10 4.8 12.9 0.00 0.00 0.00 32 1016.8
20260507121803 25 35 3.2 11.3 0.00 0.00 0.00 32 1016.8
20260507120903 25 33 1.6 9.7 0.00 0.00 0.00 32 1017.0
20260507120006 24 57 3.2 14.5 0.00 0.00 0.00 32 1017.0
20260507115405 24 85 3.2 14.5 0.00 0.00 0.00 32 1017.0
20260507114505 24 33 4.8 12.9 0.00 0.00 0.00 32 1017.1
20260507113605 24 39 3.2 12.9 0.00 0.00 0.00 32 1017.1
20260507112703 24 69 3.2 9.7 0.00 0.00 0.00 32 1017.5
20260507112019 24 33 4.8 12.9 0.00 0.00 0.00 31 1017.4
20260507111116 24 48 3.2 12.9 0.00 0.00 0.00 32 1017.5
20260507110218 24 30 4.8 11.3 0.00 0.00 0.00 33 1017.7
20260507105615 24 27 3.2 11.3 0.00 0.00 0.00 33 1017.8
20260507104505 23 26 4.8 11.3 0.00 0.00 0.00 33 1017.9
20260507103603 23 23 3.2 11.3 0.00 0.00 0.00 35 1017.9
20260507102917 23 50 3.2 11.3 0.00 0.00 0.00 33 1017.9
20260507101805 23 31 4.8 11.3 0.00 0.00 0.00 33 1017.9
20260507100905 23 33 4.8 9.7 0.00 0.00 0.00 34 1018.2
20260507100005 22 11 3.2 9.7 0.00 0.00 0.00 34 1018.3
20260507095403 22 12 4.8 9.7 0.00 0.00 0.00 35 1018.4
20260507094505 22 26 3.2 12.9 0.00 0.00 0.00 36 1018.5
20260507093604 21 18 3.2 9.7 0.00 0.00 0.00 36 1018.7
20260507092705 21 10 3.2 11.3 0.00 0.00 0.00 37 1018.7
20260507091805 21 17 3.2 11.3 0.00 0.00 0.00 36 1018.9
20260507090905 21 43 3.2 11.3 0.00 0.00 0.00 39 1018.9
20260507090006 21 39 3.2 11.3 0.00 0.00 0.00 39 1019.0
20260507085404 21 29 4.8 11.3 0.00 0.00 0.00 40 1019.0
20260507084505 20 34 3.2 9.7 0.00 0.00 0.00 42 1019.1
20260507083816 20 48 1.6 9.7 0.00 0.00 0.00 42 1019.1
20260507082913 20 53 1.6 9.7 0.00 0.00 0.00 43 1019.2
20260507081805 20 41 1.6 11.3 0.00 0.00 0.00 46 1019.3
20260507080903 19 8 1.6 8.0 0.00 0.00 0.00 46 1019.5
20260507080006 19 19 3.2 11.3 0.00 0.00 0.00 47 1019.5
20260507075404 19 56 3.2 9.7 0.00 0.00 0.00 47 1019.5
20260507074505 18 43 3.2 12.9 0.00 0.00 0.00 49 1019.5
20260507073604 18 14 4.8 11.3 0.00 0.00 0.00 48 1019.4
20260507072919 18 12 1.6 9.7 0.00 0.00 0.00 49 1019.3
20260507072016 18 29 3.2 9.7 0.00 0.00 0.00 49 1019.5
20260507071114 18 12 3.2 9.7 0.00 0.00 0.00 50 1019.6
20260507070010 17 76 3.2 12.9 0.00 0.00 0.00 51 1019.6
20260507065403 17 48 3.2 11.3 0.00 0.00 0.00 51 1019.6
20260507064505 18 49 3.2 9.7 0.00 0.00 0.00 50 1019.5
20260507063603 17 50 1.6 8.0 0.00 0.00 0.00 50 1019.5
20260507062704 17 90 0.0 8.0 0.00 0.00 0.00 51 1019.5
20260507061808 17 46 1.6 8.0 0.00 0.00 0.00 51 1019.5
20260507060905 17 20 3.2 8.0 0.00 0.00 0.00 50 1019.6
20260507060004 17 61 1.6 11.3 0.00 0.00 0.00 53 1019.6
20260507055405 17 55 1.6 11.3 0.00 0.00 0.00 52 1019.5
20260507054504 17 47 1.6 6.4 0.00 0.00 0.00 52 1019.4
20260507053605 17 42 1.6 8.0 0.00 0.00 0.00 53 1019.4
20260507052703 16 45 1.6 8.0 0.00 0.00 0.00 53 1019.5
20260507051805 16 42 1.6 8.0 0.00 0.00 0.00 51 1019.4
20260507050905 17 34 0.0 8.0 0.00 0.00 0.00 53 1019.4
20260507050004 16 354 0.0 3.2 0.00 0.00 0.00 54 1019.3
20260507045405 16 333 0.0 1.6 0.00 0.00 0.00 55 1019.2
20260507044503 15 334 1.6 6.4 0.00 0.00 0.00 54 1019.2
20260507043605 15 319 0.0 4.8 0.00 0.00 0.00 55 1019.2
20260507042703 15 0 0.0 0.0 0.00 0.00 0.00 57 1019.2
20260507041805 15 0 0.0 0.0 0.00 0.00 0.00 59 1019.1
20260507040905 14 334 0.0 1.6 0.00 0.00 0.00 61 1019.1
20260507040004 13 0 0.0 0.0 0.00 0.00 0.00 62 1019.0
20260507035405 13 0 0.0 0.0 0.00 0.00 0.00 64 1019.0
20260507034503 12 0 0.0 0.0 0.00 0.00 0.00 67 1018.9
20260507033605 12 323 0.0 4.8 0.00 0.00 0.00 68 1018.8
20260507032703 12 322 0.0 6.4 0.00 0.00 0.00 69 1018.7
20260507031805 12 322 0.0 4.8 0.00 0.00 0.00 69 1018.6
20260507030903 11 321 1.6 6.4 0.00 0.00 0.00 69 1018.6
20260507030004 11 323 0.0 4.8 0.00 0.00 0.00 70 1018.6
20260507025403 11 327 0.0 3.2 0.00 0.00 0.00 70 1018.6
20260507024717 11 0 0.0 0.0 0.00 0.00 0.00 70 1018.6
20260507023603 11 0 0.0 0.0 0.00 0.00 0.00 70 1018.5
20260507022705 12 0 0.0 0.0 0.00 0.00 0.00 69 1018.5
20260507021805 12 0 0.0 0.0 0.00 0.00 0.00 69 1018.5
20260507020905 12 0 0.0 0.0 0.00 0.00 0.00 68 1018.5
20260507020005 12 0 0.0 0.0 0.00 0.00 0.00 68 1018.4
20260507015403 12 0 0.0 0.0 0.00 0.00 0.00 68 1018.4
20260507014503 12 0 0.0 0.0 0.00 0.00 0.00 68 1018.4
20260507013604 12 0 0.0 0.0 0.00 0.00 0.00 68 1018.5
20260507012705 12 0 0.0 0.0 0.00 0.00 0.00 68 1018.4
20260507011805 12 0 0.0 0.0 0.00 0.00 0.00 68 1018.4
20260507010905 12 0 0.0 0.0 0.00 0.00 0.00 68 1018.5
20260507010005 12 0 0.0 0.0 0.00 0.00 0.00 67 1018.5
20260507005403 12 0 0.0 0.0 0.00 0.00 0.00 67 1018.5
20260507004505 12 0 0.0 0.0 0.00 0.00 0.00 66 1018.5
20260507003605 12 0 0.0 0.0 0.00 0.00 0.00 65 1018.6
20260507002705 12 0 0.0 0.0 0.00 0.00 0.00 65 1018.6
20260507001805 12 324 0.0 6.4 0.00 0.00 0.00 64 1018.6
20260507001118 12 313 0.0 6.4 0.00 0.00 0.00 65 1018.5
20260507000005 12 360 0.0 3.2 0.00 0.00 0.00 66 1018.5
20260506235405 12 0 0.0 0.0 0.00 0.00 0.00 67 1018.5
20260506234505 12 0 0.0 0.0 0.00 0.00 0.00 68 1018.7
20260506233817 12 307 0.0 1.6 0.00 0.00 0.00 69 1018.6
20260506232705 12 295 0.0 6.4 0.00 0.00 0.00 70 1018.6
20260506231803 12 300 0.0 12.9 0.00 0.00 0.00 73 1018.5
20260506230905 12 293 1.6 9.7 0.00 0.00 0.00 73 1018.7
20260506230004 12 0 0.0 0.0 0.00 0.00 0.00 75 1018.7
20260506225618 12 0 0.0 0.0 0.00 0.00 0.00 75 1018.7
20260506224503 12 0 0.0 0.0 0.00 0.00 0.00 75 1018.5
20260506223605 12 273 0.0 8.0 0.00 0.00 0.00 75 1018.5
20260506222703 12 234 0.0 9.7 0.00 0.00 0.00 76 1018.7
20260506221803 12 214 0.0 6.4 0.00 0.00 0.00 76 1018.7
20260506220905 12 116 0.0 4.8 0.00 0.00 0.00 77 1018.7
20260506220006 12 114 0.0 4.8 0.00 0.00 0.00 77 1018.7
20260506215404 12 110 0.0 3.2 0.00 0.00 0.00 77 1018.8
20260506214505 12 132 0.0 6.4 0.00 0.00 0.00 77 1018.9
20260506213603 12 148 0.0 6.4 0.00 0.00 0.00 77 1018.9
20260506212703 12 80 0.0 4.8 0.00 0.00 0.00 77 1019.0
20260506211805 12 24 0.0 4.8 0.00 0.00 0.00 77 1018.9
20260506210906 12 77 0.0 6.4 0.00 0.00 0.00 77 1019.0
20260506210012 13 103 1.6 12.9 0.00 0.00 0.00 77 1019.0
20260506205404 13 100 1.6 11.3 0.00 0.00 0.00 77 1018.9
20260506204505 13 93 1.6 11.3 0.00 0.00 0.00 76 1018.8
20260506203603 13 102 0.0 4.8 0.00 0.00 0.00 76 1018.8
20260506202916 13 80 0.0 12.9 0.00 0.00 0.00 75 1018.8
20260506202013 13 82 0.0 9.7 0.00 0.00 0.00 75 1018.9
20260506200905 13 290 0.0 12.9 0.00 0.00 0.00 74 1018.8
20260506200004 13 293 1.6 11.3 0.00 0.00 0.00 74 1018.8
20260506195405 13 281 3.2 12.9 0.00 0.00 0.00 74 1018.9
20260506194505 13 306 1.6 12.9 0.00 0.00 0.00 74 1018.9
20260506193605 13 323 3.2 11.3 0.00 0.00 0.00 75 1019.0
20260506192703 13 62 0.0 4.8 0.00 0.00 0.00 75 1019.0
20260506191805 13 101 0.0 6.4 0.00 0.00 0.00 75 1019.1
20260506191116 13 301 0.0 6.4 0.00 0.00 0.00 74 1019.1
20260506190004 13 299 1.6 9.7 0.00 0.00 0.00 74 1019.1
20260506185403 13 315 1.6 9.7 0.00 0.00 0.00 73 1019.1
20260506184504 13 292 1.6 11.3 0.00 0.00 0.00 73 1019.1
20260506183604 14 334 1.6 12.9 0.00 0.00 0.00 72 1019.0
20260506182703 14 348 4.8 12.9 0.00 0.00 0.00 72 1019.0
20260506182014 14 338 1.6 11.3 0.00 0.00 0.00 72 1018.9
20260506181117 14 338 3.2 12.9 0.00 0.00 0.00 71 1018.8
20260506180006 14 328 3.2 16.1 0.00 0.00 0.00 71 1018.6
20260506175616 14 318 3.2 16.1 0.00 0.00 0.00 71 1018.7
20260506174505 14 342 4.8 12.9 0.00 0.00 0.00 70 1018.6
20260506173815 15 338 6.4 17.7 0.00 0.00 0.00 69 1018.4
20260506172703 15 342 6.4 17.7 0.00 0.00 0.00 68 1018.3
20260506171805 15 335 6.4 19.3 0.00 0.00 0.00 67 1018.2
20260506170903 15 336 6.4 19.3 0.00 0.00 0.00 66 1018.2
20260506170005 15 334 8.0 16.1 0.00 0.00 0.00 66 1018.1
20260506165405 15 339 6.4 17.7 0.00 0.00 0.00 65 1017.9
20260506164506 15 318 8.0 20.9 0.00 0.00 0.00 64 1017.8
20260506163605 16 323 8.0 19.3 0.00 0.00 0.00 64 1017.7
20260506162705 16 339 4.8 17.7 0.00 0.00 0.00 64 1017.7
20260506161803 16 336 3.2 12.9 0.00 0.00 0.00 64 1017.6
20260506161118 16 318 3.2 12.9 0.00 0.00 0.00 63 1017.5
20260506160005 16 340 1.6 8.0 0.00 0.00 0.00 62 1017.4
20260506155405 17 345 3.2 12.9 0.00 0.00 0.00 61 1017.3
20260506154503 17 344 6.4 14.5 0.00 0.00 0.00 60 1017.3